小惑星A/2019 O4

A/2019 O4

English version
Home page
Updated on August 15, 2020

---------------------------------------------------------------------

・ プロフィール

発見日 2019年7月27日
発見光度 21.4等
発見者 Pan-STARRS 1 telescope (Haleakala)

・ 軌道要素

Epoch 2020 Feb. 1.0 TT = JDT 2458880.5
T 2020 Feb.  9.91760 TT                                 Rudenko
q   3.6444253            (2000.0)            P               Q
n   0.00522559     Peri.   61.80388     +0.43753879     -0.89561420
a  32.8886281      Node   354.91850     -0.69737682     -0.28166406
e   0.8891889      Incl.  115.08490     +0.56764899     +0.34429721
P 189              H   15.5
From 60 observations 2018 Aug. 6-2020 July 17, mean residual 0".4.

・ 光度変化

        H = 15.5  G = 0.15

---------------------------------------------------------------------

軌道要素はM.P.E.C. 2020-P19に掲載されたものです。
光度グラフはComet for Windowsで作成したものです。

---------------------------------------------------------------------

Copyright(C) Seiichi Yoshida (comet@aerith.net). All rights reserved.